Current weather by "City, St" or "zip code"  
 

Current Conditions: Corning Municipal Airport, AR

Fair with Haze


70.0 F

Last Updated on Oct 21 2021, 12:55 pm CDT
Humidity: 50%
Wind Speed: NW 11.5 G 17.3 mph
Barometer 30.09 in
Dewpoint: 50.0 F
Visibility: 1.50 mi
Precip: --
Heat Index: NA
Wind Chill: NA
Current conditions at:

Corning Municipal Airport, AR (K4M9)

Lat: 36.404 Lon: 90.648

Local Radar Image active severe weather and emergency alerts image image weather storm and storm spotter reports image weather observation monitoring service image
Local
Radar
Active
Alerts
Storm Reports Obs
Monitoring

Sign-up For Email & Text Message Weather Alert Notification Services



Advertise Here

Observation History for Corning Municipal Airport, AR


Time Wind
(mph)
Vis
(mi)
Weather Precip (in) Temperature (F) Relative
Humidity
Wind
Chill
(F)
Heat
Index
(F)
Pressure
Air Dwpt altimeter
(in)
sea level
(mb)
Rmks
12:55 pm CDT NW 11.5 G 17.3 1.50 Fair with Haze -- 70.0 50.0 50% NA NA 30.09 M
11:55 am CDT W 11.5 1.75 Fair with Haze -- 68.0 50.0 53% NA NA 30.11 M
10:55 am CDT W 12.7 G 18.4 1.75 Fair with Haze -- 66.0 48.2 52% NA NA 30.12 M
9:55 am CDT W 11.5 1.75 Fair with Haze -- 64.0 50.0 60% NA NA 30.12 M
8:55 am CDT W 9.2 1.75 Fair with Haze -- 63.0 53.6 73% 62 NA 30.11 M
7:55 am CDT W 9.2 1.50 Fair with Haze -- 57.0 53.6 88% 55 NA 30.09 M
6:55 am CDT W 9.2 2.50 Fog/Mist -- 59.0 57.2 94% 57 NA 30.08 M
5:55 am CDT W 6.9 2.00 Fog/Mist -- 61.0 60.8 100% 60 NA 30.06 M
4:55 am CDT W 4.6 2.00 Fog/Mist -- 61.0 60.8 100% 61 NA 30.04 M
3:55 am CDT SW 8.1 3.00 Fog/Mist -- 63.0 62.6 100% 63 NA 30.03 M
2:55 am CDT SW 4.6 2.50 Fog/Mist -- 64.0 62.6 94% NA NA 30.03 M
1:55 am CDT SW 8.1 5.00 Overcast with Haze -- 66.0 62.6 88% NA NA 30.04 M
12:55 am CDT SW 9.2 5.00 Fog/Mist -- 66.0 62.6 88% NA NA 30.04 M
11:55 pm CDT SW 10.4 5.00 Fair with Haze -- 66.0 60.8 83% NA NA 30.05 M
10:55 pm CDT S 8.1 4.00 Partly Cloudy with Haze -- 66.0 60.8 83% NA NA 30.06 M
9:55 pm CDT S 6.9 3.00 Fog/Mist -- 64.0 60.8 88% NA NA 30.06 M
8:55 pm CDT S 8.1 3.00 Fog/Mist -- 63.0 59.0 88% 63 NA 30.05 M
7:55 pm CDT S 6.9 3.00 Fair with Haze -- 64.0 59.0 83% NA NA 30.05 M
6:55 pm CDT S 5.8 2.50 A Few Clouds with Haze -- 66.0 59.0 78% NA NA 30.05 M
5:55 pm CDT S 8.1 4.00 Fair with Haze -- 73.0 59.0 61% NA NA 30.04 M
4:55 pm CDT S 13.8 5.00 Fair with Haze -- 79.0 60.8 54% NA NA 30.04 M
3:55 pm CDT SW 15.0 5.00 Fair with Haze -- 79.0 59.0 51% NA NA 30.05 M
2:55 pm CDT SW 15.0 G 20.7 5.00 Fair with Haze -- 79.0 60.8 54% NA NA 30.07 M
1:55 pm CDT SW 13.8 G 19.6 5.00 Fair with Haze -- 79.0 62.6 58% NA NA 30.10 M

Regional Weather Observation


Walnut Ridge Regional Airport, AR (KARG)

Fair
70.0 F

Poplar Bluff, Poplar Bluff Municipal Airport, MO (KPOF)

Fair
69.0 F

Malden Municipal Airport, MO (KMAW)

Fair
68.0 F

Kennett - Kennett Memorial Airport, MO (KTKX)

Fair
72.0 F

West Plains, West Plains Municipal Airport, MO (KUNO)

Fair
65.0 F

Jonesboro, Jonesboro Municipal Airport, AR (KJBR)

Fair
72.0 F

Advertise Here


Advertise Here